EW0013 Weather Reports


Display with metric or nautical units.
time (UTC)temp
F
wind
direction
speed
MPH
gust
MPH
rain 1hr
in
rain 24hr
in
rain mn
in
humidity
%
barometer
mb
20260906220029 88 337 0.0 4.0 0.00 0.00 0.00 35 1014.5
20260906215534 88 336 1.0 4.0 0.00 0.00 0.00 36 1014.7
20260906215012 88 338 0.0 2.0 0.00 0.00 0.00 34 1014.7
20260906214517 88 338 0.0 3.0 0.00 0.00 0.00 35 1014.8
20260906214015 88 338 1.0 3.0 0.00 0.00 0.00 35 1014.8
20260906213515 88 126 0.0 2.0 0.00 0.00 0.00 35 1014.9
20260906213020 88 129 0.0 1.0 0.00 0.00 0.00 35 1015.0
20260906212522 88 129 0.0 3.0 0.00 0.00 0.00 34 1014.9
20260906212047 88 130 1.0 2.0 0.00 0.00 0.00 36 1015.0
20260906211524 88 132 0.0 1.0 0.00 0.00 0.00 37 1015.1
20260906211029 88 132 0.0 1.0 0.00 0.00 0.00 35 1015.2
20260906210530 88 132 0.0 1.0 0.00 0.00 0.00 36 1015.4
20260906210035 88 132 0.0 1.0 0.00 0.00 0.00 35 1015.6
20260906205514 88 132 0.0 1.0 0.00 0.00 0.00 35 1015.6
20260906205034 89 132 0.0 1.0 0.00 0.00 0.00 36 1015.5
20260906204518 89 132 0.0 2.0 0.00 0.00 0.00 34 1015.5
20260906204016 89 132 1.0 2.0 0.00 0.00 0.00 33 1015.7
20260906203522 89 135 0.0 2.0 0.00 0.00 0.00 33 1015.7
20260906203043 90 136 0.0 3.0 0.00 0.00 0.00 31 1015.6
20260906202548 90 136 0.0 3.0 0.00 0.00 0.00 32 1015.7
20260906202032 90 121 0.0 2.0 0.00 0.00 0.00 33 1015.8
20260906201531 90 103 0.0 0.0 0.00 0.00 0.00 34 1015.8
20260906201028 89 117 0.0 0.0 0.00 0.00 0.00 36 1015.9
20260906200533 89 127 0.0 0.0 0.00 0.00 0.00 36 1016.0
20260906200038 89 127 0.0 2.0 0.00 0.00 0.00 36 1016.1
20260906195515 89 127 0.0 3.0 0.00 0.00 0.00 36 1016.0
20260906195014 89 127 1.0 3.0 0.00 0.00 0.00 36 1016.0
20260906194513 89 327 0.0 1.0 0.00 0.00 0.00 37 1016.1
20260906194019 88 327 0.0 1.0 0.00 0.00 0.00 37 1016.1
20260906193517 88 327 0.0 3.0 0.00 0.00 0.00 38 1016.2
20260906193044 88 327 0.0 3.0 0.00 0.00 0.00 39 1016.2
20260906192523 88 327 1.0 3.0 0.00 0.00 0.00 39 1016.3
20260906192029 87 327 0.0 0.0 0.00 0.00 0.00 40 1016.5
20260906191527 87 327 0.0 2.0 0.00 0.00 0.00 42 1016.6
20260906191032 87 327 1.0 3.0 0.00 0.00 0.00 40 1016.6
20260906190530 87 326 1.0 3.0 0.00 0.00 0.00 41 1016.6
20260906190036 87 23 0.0 3.0 0.00 0.00 0.00 44 1016.7
20260906185514 87 355 1.0 3.0 0.00 0.00 0.00 42 1016.9
20260906185013 87 345 1.0 3.0 0.00 0.00 0.00 43 1016.9
20260906184539 87 338 0.0 2.0 0.00 0.00 0.00 44 1017.2
20260906184017 87 339 0.0 3.0 0.00 0.00 0.00 45 1017.3
20260906183522 86 339 1.0 3.0 0.00 0.00 0.00 46 1017.4
20260906183020 86 326 0.0 2.0 0.00 0.00 0.00 46 1017.4
20260906182525 86 327 0.0 2.0 0.00 0.00 0.00 44 1017.4
20260906182023 86 327 0.0 3.0 0.00 0.00 0.00 46 1017.6
20260906181550 86 326 1.0 3.0 0.00 0.00 0.00 44 1017.7
20260906181027 86 136 0.0 3.0 0.00 0.00 0.00 46 1017.8
20260906180533 85 136 0.0 3.0 0.00 0.00 0.00 46 1017.9
20260906180032 85 334 0.0 3.0 0.00 0.00 0.00 45 1018.0
20260906175529 85 334 1.0 3.0 0.00 0.00 0.00 46 1018.0
20260906175034 84 271 0.0 0.0 0.00 0.00 0.00 49 1018.1
20260906174532 84 271 0.0 2.0 0.00 0.00 0.00 48 1018.4
20260906174038 84 271 0.0 2.0 0.00 0.00 0.00 48 1018.6
20260906173516 84 271 0.0 1.0 0.00 0.00 0.00 49 1018.7
20260906173015 83 271 0.0 1.0 0.00 0.00 0.00 49 1018.8
20260906172520 83 271 0.0 2.0 0.00 0.00 0.00 50 1018.8
20260906172019 83 273 0.0 2.0 0.00 0.00 0.00 52 1018.8
20260906171544 82 161 0.0 1.0 0.00 0.00 0.00 54 1018.9
20260906171020 81 161 0.0 2.0 0.00 0.00 0.00 55 1018.8
20260906170544 80 161 1.0 2.0 0.00 0.00 0.00 55 1018.8
20260906170029 80 236 0.0 1.0 0.00 0.00 0.00 57 1019.0
20260906165523 79 274 0.0 0.0 0.00 0.00 0.00 59 1019.0
20260906165021 78 274 0.0 1.0 0.00 0.00 0.00 60 1019.1
20260906164546 77 274 0.0 2.0 0.00 0.00 0.00 61 1019.2
20260906164023 76 273 0.0 2.0 0.00 0.00 0.00 62 1019.1
20260906163529 76 271 0.0 2.0 0.00 0.00 0.00 63 1019.2
20260906163027 75 271 0.0 2.0 0.00 0.00 0.00 63 1019.3
20260906162552 74 269 0.0 2.0 0.00 0.00 0.00 65 1019.4
20260906162030 74 269 0.0 3.0 0.00 0.00 0.00 65 1019.2
20260906161516 73 269 1.0 3.0 0.00 0.00 0.00 67 1019.2
20260906161012 72 146 0.0 2.0 0.00 0.00 0.00 69 1019.1
20260906160514 71 279 0.0 2.0 0.00 0.00 0.00 70 1019.2
20260906160021 71 287 0.0 2.0 0.00 0.00 0.00 71 1019.2
20260906155547 70 287 0.0 2.0 0.00 0.00 0.00 72 1019.2
20260906155024 70 287 0.0 2.0 0.00 0.00 0.00 73 1019.2
20260906154544 69 286 0.0 2.0 0.00 0.00 0.00 74 1019.3
20260906154041 69 286 0.0 1.0 0.00 0.00 0.00 75 1019.2
20260906153526 69 286 0.0 1.0 0.00 0.00 0.00 76 1019.2
20260906153025 69 286 0.0 1.0 0.00 0.00 0.00 76 1019.3
20260906152531 68 286 0.0 2.0 0.00 0.00 0.00 77 1019.3
20260906152028 68 286 0.0 2.0 0.00 0.00 0.00 78 1019.4
20260906151526 68 282 0.0 1.0 0.00 0.00 0.00 79 1019.3
20260906151032 67 279 0.0 1.0 0.00 0.00 0.00 79 1019.5
20260906150512 67 279 0.0 1.0 0.00 0.00 0.00 80 1019.5
20260906150017 67 279 0.0 1.0 0.00 0.00 0.00 81 1019.4
20260906145535 67 279 0.0 0.0 0.00 0.00 0.00 82 1019.4
20260906145019 66 279 0.0 1.0 0.00 0.00 0.00 82 1019.5
20260906144517 66 279 0.0 0.0 0.00 0.00 0.00 82 1019.5
20260906144020 66 279 0.0 0.0 0.00 0.00 0.00 83 1019.5
20260906143519 66 279 0.0 2.0 0.00 0.00 0.00 84 1019.5
20260906143025 66 279 1.0 2.0 0.00 0.00 0.00 85 1019.5
20260906142524 65 269 0.0 2.0 0.00 0.00 0.00 85 1019.4
20260906142029 65 269 0.0 0.0 0.00 0.00 0.00 85 1019.4
20260906141547 65 269 0.0 0.0 0.00 0.00 0.00 85 1019.3
20260906141032 64 269 0.0 1.0 0.00 0.00 0.00 85 1019.5
20260906140529 64 269 0.0 1.0 0.00 0.00 0.00 86 1019.3
20260906140036 64 264 0.0 1.0 0.00 0.00 0.00 86 1019.3
20260906135514 63 264 0.0 0.0 0.00 0.00 0.00 86 1019.3
20260906135040 63 264 0.0 0.0 0.00 0.00 0.00 86 1019.2
20260906134517 62 264 0.0 1.0 0.00 0.00 0.00 86 1019.3
20260906134038 62 263 0.0 2.0 0.00 0.00 0.00 86 1019.3
20260906133518 62 263 0.0 2.0 0.00 0.00 0.00 85 1019.3
20260906133017 61 263 0.0 0.0 0.00 0.00 0.00 84 1019.3
20260906132524 61 263 0.0 0.0 0.00 0.00 0.00 83 1019.5
20260906132022 61 263 0.0 0.0 0.00 0.00 0.00 81 1019.3
20260906131547 61 263 0.0 0.0 0.00 0.00 0.00 81 1019.3
20260906131025 61 263 0.0 0.0 0.00 0.00 0.00 79 1019.2
20260906130550 61 263 0.0 0.0 0.00 0.00 0.00 78 1019.2
20260906130028 61 263 0.0 0.0 0.00 0.00 0.00 78 1019.2
20260906125533 61 263 0.0 0.0 0.00 0.00 0.00 78 1019.3
20260906125031 61 263 0.0 0.0 0.00 0.00 0.00 77 1019.1
20260906124537 61 263 0.0 0.0 0.00 0.00 0.00 77 1019.1
20260906124016 61 263 0.0 0.0 0.00 0.00 0.00 76 1019.1
20260906123514 61 263 0.0 0.0 0.00 0.00 0.00 75 1019.0
20260906123041 61 263 0.0 0.0 0.00 0.00 0.00 75 1019.0
20260906122517 62 263 0.0 0.0 0.00 0.00 0.00 75 1019.1
20260906122043 62 263 0.0 0.0 0.00 0.00 0.00 75 1019.0
20260906121520 62 263 0.0 0.0 0.00 0.00 0.00 75 1019.0
20260906121025 62 263 0.0 0.0 0.00 0.00 0.00 74 1018.8
20260906120523 62 263 0.0 0.0 0.00 0.00 0.00 73 1018.7
20260906120029 62 263 0.0 0.0 0.00 0.00 0.00 73 1018.7
20260906115527 62 263 0.0 0.0 0.00 0.00 0.00 73 1018.9
20260906115025 62 263 0.0 0.0 0.00 0.00 0.00 72 1018.8
20260906114530 63 263 0.0 0.0 0.00 0.00 0.00 72 1018.8
20260906114029 63 263 0.0 0.0 0.00 0.00 0.00 72 1018.8
20260906113535 63 263 0.0 0.0 0.00 0.00 0.00 71 1018.9
20260906113013 63 263 0.0 0.0 0.00 0.00 0.00 71 1018.9
20260906112512 63 263 0.0 0.0 0.00 0.00 0.00 70 1018.8
20260906112012 63 263 0.0 0.0 0.00 0.00 0.00 70 1018.6
20260906111537 63 263 0.0 0.0 0.00 0.00 0.00 70 1018.6
20260906111023 64 263 0.0 0.0 0.00 0.00 0.00 69 1018.6
20260906110521 64 263 0.0 0.0 0.00 0.00 0.00 68 1018.6
20260906110020 64 263 0.0 0.0 0.00 0.00 0.00 68 1018.6
20260906105522 64 263 0.0 0.0 0.00 0.00 0.00 67 1018.6
20260906105027 64 263 0.0 0.0 0.00 0.00 0.00 67 1018.8
20260906104546 65 263 0.0 0.0 0.00 0.00 0.00 66 1018.7
20260906104030 65 263 0.0 0.0 0.00 0.00 0.00 66 1018.7
20260906103536 65 263 0.0 0.0 0.00 0.00 0.00 66 1018.7
20260906103014 65 263 0.0 0.0 0.00 0.00 0.00 66 1018.8
20260906102513 66 263 0.0 0.0 0.00 0.00 0.00 65 1018.7
20260906102039 66 263 0.0 0.0 0.00 0.00 0.00 66 1018.6
20260906101517 66 263 0.0 0.0 0.00 0.00 0.00 65 1018.7
20260906101017 66 263 0.0 0.0 0.00 0.00 0.00 65 1018.6
20260906100523 66 263 0.0 0.0 0.00 0.00 0.00 64 1018.6
20260906100022 67 263 0.0 0.0 0.00 0.00 0.00 63 1018.6
20260906095520 67 263 0.0 0.0 0.00 0.00 0.00 63 1018.5
20260906095017 67 263 0.0 0.0 0.00 0.00 0.00 63 1018.6
20260906094556 67 263 0.0 0.0 0.00 0.00 0.00 62 1018.7
20260906094027 67 263 0.0 0.0 0.00 0.00 0.00 62 1018.7
20260906093538 67 263 0.0 0.0 0.00 0.00 0.00 61 1018.6
20260906093040 68 263 0.0 0.0 0.00 0.00 0.00 61 1018.6
20260906092539 68 263 0.0 0.0 0.00 0.00 0.00 61 1018.4
20260906092017 68 263 0.0 0.0 0.00 0.00 0.00 60 1018.3
20260906091517 68 263 0.0 0.0 0.00 0.00 0.00 60 1018.1
20260906091022 68 263 0.0 1.0 0.00 0.00 0.00 60 1018.0
20260906090521 68 263 0.0 2.0 0.00 0.00 0.00 60 1017.9
20260906090027 68 263 0.0 2.0 0.00 0.00 0.00 60 1017.7
20260906085526 68 263 0.0 0.0 0.00 0.00 0.00 60 1017.7
20260906085025 68 263 0.0 0.0 0.00 0.00 0.00 59 1017.8
20260906084530 68 263 0.0 0.0 0.00 0.00 0.00 59 1017.8
20260906084029 68 263 0.0 0.0 0.00 0.00 0.00 59 1017.8
20260906083513 69 263 0.0 0.0 0.00 0.00 0.00 58 1017.9
20260906083012 69 263 0.0 0.0 0.00 0.00 0.00 57 1017.9
20260906082512 69 263 0.0 0.0 0.00 0.00 0.00 56 1017.8
20260906082017 69 263 0.0 0.0 0.00 0.00 0.00 56 1017.9
20260906081516 69 263 0.0 0.0 0.00 0.00 0.00 56 1018.0
20260906081023 69 263 0.0 2.0 0.00 0.00 0.00 55 1018.0
20260906080522 69 263 0.0 2.0 0.00 0.00 0.00 54 1017.9
20260906080021 69 263 0.0 0.0 0.00 0.00 0.00 55 1017.9
20260906075547 69 263 0.0 0.0 0.00 0.00 0.00 54 1017.8
20260906075051 70 263 0.0 1.0 0.00 0.00 0.00 54 1017.8
20260906074530 70 263 0.0 1.0 0.00 0.00 0.00 54 1017.9
20260906074035 70 263 0.0 0.0 0.00 0.00 0.00 52 1017.7
20260906073514 70 263 0.0 0.0 0.00 0.00 0.00 52 1017.7
20260906073020 70 263 0.0 0.0 0.00 0.00 0.00 52 1017.8
20260906072518 70 263 0.0 0.0 0.00 0.00 0.00 52 1017.9
20260906072017 70 263 0.0 0.0 0.00 0.00 0.00 51 1017.9
20260906071542 70 263 0.0 0.0 0.00 0.00 0.00 51 1017.9
20260906071027 70 263 0.0 0.0 0.00 0.00 0.00 51 1017.9
20260906070544 71 263 0.0 0.0 0.00 0.00 0.00 51 1017.7
20260906070028 71 263 0.0 0.0 0.00 0.00 0.00 51 1017.8
20260906065526 71 263 0.0 0.0 0.00 0.00 0.00 50 1017.8
20260906065032 71 263 0.0 0.0 0.00 0.00 0.00 50 1017.9
20260906064530 71 263 0.0 0.0 0.00 0.00 0.00 51 1017.6
20260906064029 72 263 0.0 0.0 0.00 0.00 0.00 49 1017.7
20260906063533 72 263 0.0 0.0 0.00 0.00 0.00 49 1017.8
20260906063032 72 263 0.0 1.0 0.00 0.00 0.00 48 1017.9
20260906062537 72 263 0.0 2.0 0.00 0.00 0.00 47 1017.9
20260906062016 72 263 0.0 2.0 0.00 0.00 0.00 47 1017.8
20260906061513 73 263 0.0 0.0 0.00 0.00 0.00 47 1017.8
20260906061019 73 263 0.0 0.0 0.00 0.00 0.00 46 1017.7
20260906060544 73 263 0.0 0.0 0.00 0.00 0.00 45 1017.8
20260906060042 73 263 0.0 0.0 0.00 0.00 0.00 46 1017.9
20260906055524 73 263 0.0 0.0 0.00 0.00 0.00 45 1018.1
20260906055022 73 263 0.0 0.0 0.00 0.00 0.00 45 1018.3
20260906054520 74 263 0.0 0.0 0.00 0.00 0.00 45 1018.3
20260906054025 74 263 0.0 0.0 0.00 0.00 0.00 45 1018.2
20260906053550 74 263 0.0 0.0 0.00 0.00 0.00 44 1018.2
20260906053047 74 263 0.0 0.0 0.00 0.00 0.00 44 1018.2
20260906052530 74 263 0.0 0.0 0.00 0.00 0.00 44 1018.2
20260906052029 74 263 0.0 0.0 0.00 0.00 0.00 44 1018.0
20260906051534 74 263 0.0 1.0 0.00 0.00 0.00 44 1017.9
20260906051013 74 263 0.0 1.0 0.00 0.00 0.00 44 1017.9
20260906050533 74 263 0.0 0.0 0.00 0.00 0.00 44 1017.8
20260906050038 74 263 0.0 0.0 0.00 0.00 0.00 44 1017.6
20260906045516 74 263 0.0 0.0 0.00 0.00 0.00 44 1017.5
20260906045015 74 263 0.0 0.0 0.00 0.00 0.00 44 1017.6
20260906044520 75 263 0.0 0.0 0.00 0.00 0.00 43 1017.6
20260906044020 75 263 0.0 0.0 0.00 0.00 0.00 41 1017.7
20260906043526 75 263 0.0 0.0 0.00 0.00 0.00 41 1017.8
20260906043023 75 263 0.0 1.0 0.00 0.00 0.00 41 1017.9
20260906042522 76 263 0.0 1.0 0.00 0.00 0.00 42 1017.8
20260906042029 76 263 0.0 0.0 0.00 0.00 0.00 41 1017.7
20260906041527 76 263 0.0 0.0 0.00 0.00 0.00 43 1017.3
20260906041034 76 263 0.0 1.0 0.00 0.00 0.00 40 1017.0
20260906040533 77 263 0.0 0.0 0.00 0.00 0.00 39 1016.9
20260906040031 77 263 0.0 1.0 0.00 0.00 0.00 38 1016.9
20260906035537 77 263 0.0 2.0 0.00 0.00 0.00 39 1016.7
20260906035021 77 263 1.0 2.0 0.00 0.00 0.00 39 1016.5
20260906034519 78 263 0.0 1.0 0.00 0.00 0.00 38 1016.7
20260906034018 78 263 0.0 0.0 0.00 0.00 0.00 37 1016.6
20260906033543 78 263 0.0 0.0 0.00 0.00 0.00 37 1016.6
20260906033029 79 263 0.0 0.0 0.00 0.00 0.00 36 1016.6
20260906032545 79 263 0.0 0.0 0.00 0.00 0.00 35 1016.6
20260906032030 79 263 0.0 0.0 0.00 0.00 0.00 35 1016.6
20260906031524 79 263 0.0 0.0 0.00 0.00 0.00 35 1016.6
20260906031028 79 263 0.0 0.0 0.00 0.00 0.00 34 1016.5
20260906030552 80 263 0.0 0.0 0.00 0.00 0.00 34 1016.4
20260906030031 80 263 0.0 0.0 0.00 0.00 0.00 34 1016.3
20260906025529 80 263 0.0 0.0 0.00 0.00 0.00 34 1016.1
20260906025034 80 263 0.0 0.0 0.00 0.00 0.00 34 1016.0
20260906024513 80 263 0.0 0.0 0.00 0.00 0.00 33 1015.9
20260906024039 80 263 0.0 1.0 0.00 0.00 0.00 34 1015.8
20260906023517 80 263 0.0 1.0 0.00 0.00 0.00 34 1015.8
20260906023037 81 263 0.0 0.0 0.00 0.00 0.00 34 1015.7
20260906022523 81 263 0.0 0.0 0.00 0.00 0.00 33 1015.8
20260906022022 81 263 0.0 0.0 0.00 0.00 0.00 33 1015.8
20260906021519 81 263 0.0 0.0 0.00 0.00 0.00 32 1015.9
20260906021018 81 263 0.0 0.0 0.00 0.00 0.00 32 1015.8
20260906020523 82 263 0.0 0.0 0.00 0.00 0.00 32 1015.7
20260906020021 82 263 0.0 2.0 0.00 0.00 0.00 32 1015.7
20260906015526 82 263 0.0 2.0 0.00 0.00 0.00 31 1015.6
20260906015025 82 263 0.0 3.0 0.00 0.00 0.00 31 1015.5
20260906014551 82 263 1.0 4.0 0.00 0.00 0.00 31 1015.4
20260906014029 83 265 2.0 4.0 0.00 0.00 0.00 31 1015.4
20260906013535 83 263 2.0 4.0 0.00 0.00 0.00 30 1015.3
20260906013014 83 261 2.0 4.0 0.00 0.00 0.00 30 1015.2
20260906012513 84 261 2.0 5.0 0.00 0.00 0.00 30 1015.3
20260906012039 84 269 2.0 5.0 0.00 0.00 0.00 29 1015.4
20260906011517 84 270 1.0 4.0 0.00 0.00 0.00 28 1015.4
20260906011017 85 266 2.0 4.0 0.00 0.00 0.00 28 1015.4
20260906010524 85 272 1.0 4.0 0.00 0.00 0.00 28 1015.4
20260906010024 86 273 3.0 5.0 0.00 0.00 0.00 28 1015.4
20260906005522 86 270 3.0 6.0 0.00 0.00 0.00 27 1015.5
20260906005027 86 257 3.0 6.0 0.00 0.00 0.00 27 1015.4
20260906004525 86 275 1.0 3.0 0.00 0.00 0.00 27 1015.5
20260906004032 86 259 0.0 4.0 0.00 0.00 0.00 27 1015.5
20260906003531 87 259 1.0 5.0 0.00 0.00 0.00 27 1015.5
20260906003058 87 263 2.0 5.0 0.00 0.00 0.00 26 1015.6
20260906002536 87 269 2.0 5.0 0.00 0.00 0.00 26 1015.6
20260906002021 87 259 3.0 5.0 0.00 0.00 0.00 25 1015.5
20260906001521 87 261 2.0 5.0 0.00 0.00 0.00 26 1015.5
20260906001020 87 277 1.0 5.0 0.00 0.00 0.00 26 1015.5
20260906000527 87 312 1.0 4.0 0.00 0.00 0.00 26 1015.6
20260906000026 88 288 1.0 5.0 0.00 0.00 0.00 25 1015.6
20260905235532 88 292 2.0 5.0 0.00 0.00 0.00 25 1015.6
20260905235032 88 265 1.0 4.0 0.00 0.00 0.00 26 1015.6
20260905234558 89 282 1.0 4.0 0.00 0.00 0.00 25 1015.5
20260905234036 89 285 1.0 5.0 0.00 0.00 0.00 25 1015.4
20260905233530 90 281 3.0 5.0 0.00 0.00 0.00 24 1015.4
20260905233052 90 325 0.0 1.0 0.00 0.00 0.00 25 1015.3
20260905232550 90 325 0.0 1.0 0.00 0.00 0.00 25 1015.3
20260905232033 90 325 0.0 2.0 0.00 0.00 0.00 24 1015.2
20260905231530 91 325 0.0 2.0 0.00 0.00 0.00 22 1015.2
20260905231036 91 325 0.0 1.0 0.00 0.00 0.00 23 1015.1
20260905230515 91 325 0.0 2.0 0.00 0.00 0.00 23 1015.1
20260905230015 92 325 0.0 3.0 0.00 0.00 0.00 23 1015.0
20260905225513 92 324 0.0 3.0 0.00 0.00 0.00 22 1015.0
20260905225020 92 126 0.0 1.0 0.00 0.00 0.00 22 1014.9
20260905224517 92 126 0.0 1.0 0.00 0.00 0.00 21 1015.0
20260905224023 93 126 0.0 1.0 0.00 0.00 0.00 20 1015.0
20260905223522 93 126 0.0 1.0 0.00 0.00 0.00 21 1015.0
20260905223020 93 126 0.0 1.0 0.00 0.00 0.00 20 1015.0
20260905222547 93 126 0.0 3.0 0.00 0.00 0.00 20 1015.0
20260905222051 93 143 0.0 3.0 0.00 0.00 0.00 21 1015.0
20260905221530 93 119 0.0 2.0 0.00 0.00 0.00 21 1015.0
20260905221036 93 119 0.0 3.0 0.00 0.00 0.00 21 1015.1
20260905220512 93 119 1.0 3.0 0.00 0.00 0.00 20 1015.1
20260905220038 93 134 0.0 1.0 0.00 0.00 0.00 21 1015.2